Location: Newark
(7.0858°N, 171.3717°E)
Time: 09:15:59
(UTC+00:00)

S-56A Canister/Altair - Pass Details

Date: 01 December 2020
Orbit: 633 x 2499 km, 38.9° (Epoch: 27 January)

Event Time Altitude Azimuth Distance (km) Brightness Sun altitude
Rises 04:02:50 0° 226° (SW) 6,010 13.2 29.0°
Reaches altitude 10° 04:06:38 10° 225° (SW) 5,096 13.2 28.2°
Maximum altitude 04:21:56 84° 138° (SE) 2,427 10.5 24.9°
Drops below altitude 10° 04:35:04 10° 51° (NE) 4,456 10.9 22.0°
Sets 04:38:08 0° 51° (NE) 5,249 11.2 21.3°
